F4FEB-13 Weather Reports


Display with metric or nautical units.
time (UTC)temp
F
wind
direction
speed
MPH
gust
MPH
rain 1hr
in
rain 24hr
in
rain mn
in
humidity
%
barometer
mb
20260506211914 46 253 7.0 8.0 0.04 0.48 0.48 100 1011.2
20260506211417 46 264 7.0 8.0 0.04 0.48 0.48 100 1011.2
20260506211414 46 264 7.0 8.0 0.04 0.48 0.48 100 1011.2
20260506210914 46 239 4.0 8.0 0.04 0.48 0.48 100 1011.2
20260506210414 46 284 5.0 9.0 0.05 0.48 0.48 100 1011.1
20260506205914 46 182 3.0 9.0 0.05 0.48 0.48 100 1011.1
20260506205414 46 265 6.0 9.0 0.04 0.47 0.47 100 1011.1
20260506204914 46 171 3.0 8.0 0.05 0.47 0.47 100 1011.1
20260506204414 46 254 8.0 10.0 0.05 0.47 0.47 100 1011.0
20260506203914 46 213 5.0 9.0 0.04 0.46 0.46 100 1011.0
20260506203414 46 270 3.0 10.0 0.04 0.46 0.46 100 1011.0
20260506202918 46 250 5.0 13.0 0.05 0.46 0.46 100 1011.0
20260506202914 46 250 5.0 13.0 0.05 0.46 0.46 100 1011.0
20260506202414 46 171 5.0 11.0 0.04 0.45 0.45 100 1011.0
20260506201914 46 260 7.0 9.0 0.03 0.44 0.44 100 1011.0
20260506201414 46 232 6.0 9.0 0.04 0.44 0.44 100 1011.0
20260506200914 46 217 4.0 8.0 0.04 0.44 0.44 100 1011.0
20260506200414 46 247 6.0 8.0 0.03 0.43 0.43 100 1011.0
20260506195917 46 226 0.0 8.0 0.03 0.43 0.43 100 1011.0
20260506195914 46 226 0.0 8.0 0.03 0.43 0.43 100 1011.0
20260506195414 46 239 6.0 9.0 0.03 0.43 0.43 100 1011.0
20260506194914 46 237 3.0 8.0 0.02 0.42 0.42 100 1011.0
20260506194414 46 257 7.0 10.0 0.02 0.42 0.42 100 1010.9
20260506193914 46 180 7.0 9.0 0.02 0.42 0.42 100 1010.9
20260506193414 46 246 3.0 9.0 0.02 0.42 0.42 100 1010.9
20260506192914 46 240 7.0 12.0 0.01 0.41 0.41 100 1010.7
20260506192414 46 261 6.0 10.0 0.01 0.41 0.41 100 1010.7
20260506191914 46 236 6.0 10.0 0.01 0.41 0.41 100 1010.7
20260506191418 46 217 6.0 10.0 0.01 0.40 0.40 100 1010.6
20260506191414 46 217 6.0 10.0 0.01 0.40 0.40 100 1010.6
20260506190914 46 241 5.0 10.0 0.02 0.40 0.40 100 1010.5
20260506190414 46 170 2.0 8.0 0.02 0.40 0.40 100 1010.4
20260506185918 46 254 7.0 8.0 0.03 0.40 0.40 100 1010.4
20260506185914 46 254 7.0 8.0 0.03 0.40 0.40 100 1010.4
20260506185414 46 258 6.0 10.0 0.03 0.40 0.40 100 1010.0
20260506184914 46 255 7.0 9.0 0.03 0.40 0.40 100 1010.2
20260506184418 46 222 7.0 11.0 0.04 0.40 0.40 100 1010.2
20260506184414 46 222 7.0 11.0 0.04 0.40 0.40 100 1010.2
20260506183914 46 210 6.0 10.0 0.05 0.40 0.40 100 1010.2
20260506183414 47 230 3.0 9.0 0.05 0.40 0.40 100 1009.9
20260506182914 47 251 7.0 10.0 0.06 0.40 0.40 100 1010.1
20260506182414 47 241 6.0 12.0 0.06 0.40 0.40 100 1010.1
20260506181914 47 223 3.0 13.0 0.06 0.40 0.40 100 1010.0
20260506181418 47 241 7.0 16.0 0.05 0.39 0.39 100 1010.0
20260506181414 47 241 7.0 16.0 0.05 0.39 0.39 100 1010.0
20260506180914 47 226 9.0 11.0 0.04 0.38 0.38 100 1009.9
20260506180414 47 206 9.0 14.0 0.04 0.38 0.38 100 1009.8
20260506175919 48 257 14.0 14.0 0.03 0.37 0.37 100 1009.6
20260506175914 48 257 14.0 14.0 0.03 0.37 0.37 100 1009.6
20260506175414 48 192 0.0 14.0 0.03 0.37 0.37 100 1009.6
20260506174914 48 250 5.0 13.0 0.03 0.37 0.37 99 1009.6
20260506174419 49 265 6.0 22.0 0.02 0.36 0.36 98 1009.4
20260506174414 49 265 6.0 22.0 0.02 0.36 0.36 98 1009.4
20260506173914 49 226 7.0 10.0 0.01 0.35 0.35 98 1009.3
20260506173414 49 198 6.0 9.0 0.01 0.35 0.35 98 1009.2
20260506172918 49 163 3.0 10.0 0.01 0.34 0.34 98 1009.1
20260506172914 49 163 3.0 10.0 0.01 0.34 0.34 98 1009.1
20260506172414 49 265 5.0 8.0 0.01 0.34 0.34 98 1009.1
20260506171914 49 130 0.0 11.0 0.01 0.34 0.34 97 1009.1
20260506171417 49 246 4.0 9.0 0.01 0.34 0.34 97 1009.0
20260506171414 49 246 4.0 9.0 0.01 0.34 0.34 97 1009.0
20260506170914 49 232 7.0 10.0 0.01 0.34 0.34 97 1009.0
20260506170414 49 222 9.0 11.0 0.01 0.34 0.34 97 1008.9
20260506165914 49 247 10.0 11.0 0.01 0.34 0.34 97 1008.9
20260506165414 49 258 6.0 12.0 0.02 0.34 0.34 97 1008.9
20260506164914 49 233 9.0 13.0 0.02 0.34 0.34 97 1009.0
20260506164414 49 208 8.0 11.0 0.02 0.34 0.34 98 1009.0
20260506163914 49 274 7.0 11.0 0.02 0.34 0.34 98 1009.0
20260506163414 49 250 9.0 12.0 0.03 0.34 0.34 97 1009.0
20260506162914 49 172 4.0 12.0 0.02 0.33 0.33 97 1009.1
20260506162414 49 229 9.0 10.0 0.02 0.33 0.33 97 1009.1
20260506161915 49 234 5.0 9.0 0.03 0.33 0.33 97 1009.0
20260506161417 49 233 7.0 9.0 0.03 0.33 0.33 97 1009.1
20260506161414 49 233 7.0 9.0 0.03 0.33 0.33 97 1009.1
20260506160915 49 195 4.0 10.0 0.03 0.33 0.33 97 1009.1
20260506160414 49 247 5.0 11.0 0.03 0.33 0.33 97 1009.1
20260506155919 49 289 4.0 11.0 0.04 0.33 0.33 97 1009.0
20260506155915 49 289 4.0 11.0 0.04 0.33 0.33 97 1009.0
20260506155415 49 225 4.0 11.0 0.03 0.32 0.32 97 1009.0
20260506154915 49 225 8.0 9.0 0.03 0.32 0.32 96 1009.0
20260506154418 49 261 1.0 12.0 0.03 0.32 0.32 96 1009.0
20260506154415 49 261 1.0 12.0 0.03 0.32 0.32 96 1009.0
20260506153915 49 239 10.0 11.0 0.03 0.32 0.32 96 1009.0
20260506153415 49 258 7.0 10.0 0.02 0.31 0.31 96 1009.0
20260506152915 49 275 6.0 11.0 0.02 0.31 0.31 95 1009.0
20260506152415 49 229 5.0 14.0 0.02 0.38 0.31 95 1009.0
20260506151915 49 217 9.0 11.0 0.01 0.37 0.30 95 1008.9
20260506151419 49 220 6.0 12.0 0.01 0.37 0.30 95 1008.9
20260506151415 49 220 6.0 12.0 0.01 0.37 0.30 95 1008.9
20260506150915 49 191 5.0 13.0 0.01 0.37 0.30 94 1008.9
20260506150415 49 222 4.0 17.0 0.01 0.37 0.30 93 1008.8
20260506145917 49 154 8.0 16.0 0.00 0.36 0.29 94 1008.8
20260506145915 49 154 8.0 16.0 0.00 0.36 0.29 94 1008.8
20260506145415 50 239 7.0 18.0 0.00 0.36 0.29 95 1008.9
20260506144915 50 222 3.0 13.0 0.00 0.36 0.29 94 1008.8
20260506144418 50 260 3.0 13.0 0.00 0.36 0.29 94 1008.8
20260506144415 50 260 3.0 13.0 0.00 0.36 0.29 94 1008.8
20260506143915 50 209 7.0 14.0 0.00 0.36 0.29 93 1008.8
20260506143415 50 261 1.0 14.0 0.00 0.36 0.29 95 1008.8
20260506142915 50 254 8.0 16.0 0.01 0.36 0.29 94 1008.8
20260506142415 50 163 8.0 11.0 0.01 0.36 0.29 95 1008.8
20260506141915 50 209 9.0 16.0 0.01 0.36 0.29 95 1008.8
20260506141417 50 257 8.0 14.0 0.01 0.36 0.29 95 1008.9
20260506141415 50 257 8.0 14.0 0.01 0.36 0.29 95 1008.9
20260506140915 50 247 6.0 14.0 0.01 0.36 0.29 94 1008.8
20260506140415 50 194 7.0 17.0 0.01 0.36 0.29 94 1008.8
20260506135915 50 247 9.0 17.0 0.01 0.36 0.29 95 1008.7
20260506135415 50 239 9.0 15.0 0.01 0.36 0.29 96 1008.8
20260506134915 50 125 8.0 15.0 0.01 0.36 0.29 97 1008.8
20260506134415 50 187 8.0 13.0 0.01 0.36 0.29 97 1008.8
20260506133915 50 227 7.0 14.0 0.01 0.36 0.29 97 1008.9
20260506133415 50 250 5.0 13.0 0.01 0.36 0.29 96 1008.8
20260506132918 50 262 6.0 16.0 0.00 0.35 0.28 95 1008.9
20260506132915 50 262 6.0 16.0 0.00 0.35 0.28 95 1008.9
20260506132415 50 246 10.0 15.0 0.00 0.35 0.28 95 1008.8
20260506131915 51 217 7.0 17.0 0.00 0.35 0.28 93 1008.7
20260506131415 52 230 8.0 11.0 0.00 0.35 0.28 95 1008.7
20260506130915 52 265 6.0 12.0 0.00 0.35 0.28 95 1008.6
20260506130415 51 206 9.0 11.0 0.00 0.35 0.28 95 1008.6
20260506125915 51 219 3.0 12.0 0.00 0.35 0.28 95 1008.7
20260506125415 51 241 9.0 12.0 0.01 0.35 0.28 95 1008.7
20260506124915 51 270 5.0 9.0 0.01 0.35 0.28 95 1008.6
20260506124419 51 268 5.0 12.0 0.02 0.35 0.28 95 1008.6
20260506124415 51 268 5.0 12.0 0.02 0.35 0.28 95 1008.6
20260506123915 51 213 9.0 9.0 0.02 0.35 0.28 95 1008.7
20260506123415 51 254 3.0 12.0 0.03 0.35 0.28 95 1008.7
20260506122918 52 194 7.0 10.0 0.04 0.40 0.28 97 1008.6
20260506122915 52 194 7.0 10.0 0.04 0.40 0.28 97 1008.6
20260506122415 51 240 3.0 10.0 0.04 0.40 0.28 97 1008.5
20260506121915 51 267 8.0 9.0 0.05 0.40 0.28 98 1008.4
20260506121419 51 244 7.0 9.0 0.06 0.40 0.28 99 1008.5
20260506121415 51 244 7.0 9.0 0.06 0.40 0.28 99 1008.5
20260506120915 50 237 5.0 9.0 0.07 0.40 0.28 100 1008.5
20260506120415 50 178 6.0 11.0 0.08 0.40 0.28 100 1008.5
20260506115919 50 237 8.0 10.0 0.09 0.40 0.28 100 1008.6
20260506115915 50 237 8.0 10.0 0.09 0.40 0.28 100 1008.6
20260506115415 50 168 3.0 6.0 0.09 0.39 0.27 100 1008.7
20260506114915 49 243 4.0 11.0 0.10 0.39 0.27 100 1008.7
20260506114419 49 181 7.0 10.0 0.10 0.38 0.26 100 1008.7
20260506114415 49 181 7.0 10.0 0.10 0.38 0.26 100 1008.7
20260506113915 49 220 5.0 8.0 0.11 0.38 0.26 100 1008.7
20260506113415 49 229 7.0 9.0 0.11 0.37 0.25 100 1008.7
20260506112919 49 265 6.0 9.0 0.11 0.41 0.24 100 1008.7
20260506112915 49 265 6.0 9.0 0.11 0.41 0.24 100 1008.7
20260506112415 49 254 4.0 8.0 0.12 0.41 0.24 100 1008.8
20260506111915 49 222 5.0 9.0 0.13 0.40 0.23 100 1008.8
20260506111418 49 262 5.0 7.0 0.13 0.39 0.22 100 1008.8
20260506111415 49 262 5.0 7.0 0.13 0.39 0.22 100 1008.8
20260506110915 49 198 3.0 11.0 0.13 0.38 0.21 100 1008.8
20260506110415 49 243 9.0 10.0 0.14 0.37 0.20 100 1008.8
20260506105915 49 243 9.0 12.0 0.15 0.36 0.19 100 1008.8
20260506105415 49 257 5.0 14.0 0.15 0.35 0.18 100 1008.8
20260506104915 49 213 9.0 14.0 0.15 0.34 0.17 100 1008.8
20260506104419 50 251 12.0 12.0 0.15 0.33 0.16 100 1008.7
20260506104415 50 251 12.0 12.0 0.15 0.33 0.16 100 1008.7
20260506103915 50 232 7.0 12.0 0.14 0.32 0.15 100 1008.7
20260506103415 50 239 9.0 14.0 0.14 0.31 0.14 100 1008.6
20260506102918 50 258 9.0 14.0 0.13 0.31 0.13 100 1008.5
20260506102915 50 258 9.0 14.0 0.13 0.31 0.13 100 1008.5
20260506102415 50 236 8.0 13.0 0.12 0.30 0.12 100 1008.5
20260506101915 50 210 12.0 14.0 0.10 0.28 0.10 100 1008.4
20260506101419 50 217 4.0 16.0 0.09 0.27 0.09 99 1008.2
20260506101415 50 217 4.0 16.0 0.09 0.27 0.09 99 1008.2
20260506100916 50 247 13.0 17.0 0.08 0.26 0.08 98 1008.2
20260506100415 51 201 11.0 15.0 0.06 0.24 0.06 98 1008.0
20260506095918 51 274 4.0 12.0 0.04 0.22 0.04 97 1007.8
20260506095915 51 274 4.0 12.0 0.04 0.22 0.04 97 1007.8
20260506095415 51 240 4.0 7.0 0.03 0.21 0.03 97 1007.8
20260506094915 51 247 4.0 10.0 0.02 0.20 0.02 97 1007.7
20260506094418 52 232 8.0 9.0 0.01 0.19 0.01 96 1007.7
20260506094415 52 232 8.0 9.0 0.01 0.19 0.01 96 1007.7
20260506093915 52 205 4.0 7.0 0.01 0.19 0.01 95 1007.6
20260506093415 52 246 0.0 8.0 0.00 0.18 0.00 93 1007.5
20260506092918 52 265 7.0 7.0 0.00 0.18 0.00 92 1007.4
20260506092915 52 265 7.0 7.0 0.00 0.18 0.00 92 1007.4
20260506092415 52 253 4.0 8.0 0.00 0.18 0.00 91 1007.4
20260506091915 52 244 3.0 8.0 0.00 0.18 0.00 89 1007.4
20260506091419 52 243 2.0 7.0 0.00 0.18 0.00 88 1007.3
20260506091415 52 243 2.0 7.0 0.00 0.18 0.00 88 1007.3
20260506090915 52 255 6.0 8.0 0.00 0.18 0.00 87 1007.3
20260506090415 52 257 4.0 9.0 0.00 0.18 0.00 86 1007.2
20260506085918 53 264 8.0 8.0 0.00 0.18 0.00 86 1007.2
20260506085915 53 264 8.0 8.0 0.00 0.18 0.00 86 1007.2
20260506085415 53 164 1.0 8.0 0.00 0.18 0.00 86 1007.1
20260506084915 53 299 3.0 7.0 0.00 0.18 0.00 86 1007.0
20260506084421 53 262 4.0 8.0 0.00 0.18 0.00 86 1006.9
20260506084415 53 262 4.0 8.0 0.00 0.18 0.00 86 1006.9
20260506083915 53 268 4.0 7.0 0.00 0.18 0.00 86 1006.9
20260506083415 52 243 4.0 9.0 0.00 0.18 0.00 86 1006.8
20260506082920 52 271 5.0 8.0 0.00 0.18 0.00 86 1006.7
20260506082916 52 271 5.0 8.0 0.00 0.18 0.00 86 1006.7
20260506082415 52 253 4.0 6.0 0.00 0.18 0.00 86 1006.7
20260506081915 53 264 3.0 6.0 0.00 0.18 0.00 86 1006.7
20260506081418 53 306 2.0 6.0 0.00 0.18 0.00 86 1006.6
20260506081416 53 306 2.0 6.0 0.00 0.18 0.00 86 1006.6
20260506080916 52 268 5.0 6.0 0.00 0.18 0.00 86 1006.6
20260506080416 52 254 3.0 7.0 0.00 0.18 0.00 87 1006.6
20260506073416 52 234 3.0 6.0 0.00 0.18 0.00 89 1006.7
20260506072919 52 223 4.0 6.0 0.00 0.18 0.00 90 1006.7
20260506072916 52 223 4.0 6.0 0.00 0.18 0.00 90 1006.7
20260506072416 52 241 1.0 4.0 0.00 0.18 0.00 90 1006.7
20260506071916 51 268 2.0 6.0 0.00 0.18 0.00 90 1006.6
20260506071421 51 196 2.0 5.0 0.00 0.18 0.00 90 1006.7
20260506071416 51 196 2.0 5.0 0.00 0.18 0.00 90 1006.7
20260506070916 51 171 0.0 6.0 0.00 0.18 0.00 91 1006.7
20260506070416 51 203 1.0 4.0 0.00 0.18 0.00 91 1006.7
20260506062416 51 257 0.0 5.0 0.00 0.19 0.00 91 1006.8
20260506061916 51 289 4.0 4.0 0.00 0.19 0.00 91 1006.7
20260506061420 51 181 0.0 4.0 0.00 0.19 0.00 90 1006.8
20260506061416 51 181 0.0 4.0 0.00 0.19 0.00 90 1006.8
20260506060916 51 298 0.0 4.0 0.00 0.19 0.00 90 1006.7
20260506060416 51 255 3.0 5.0 0.00 0.19 0.00 90 1006.7
20260506051416 50 254 3.0 5.0 0.00 0.19 0.00 89 1006.7
20260506050916 50 265 3.0 5.0 0.00 0.19 0.00 89 1006.8
20260506050416 50 254 3.0 6.0 0.00 0.19 0.00 89 1006.7
20260506044916 50 237 3.0 3.0 0.00 0.19 0.00 91 1006.7
20260506044420 50 239 1.0 1.0 0.00 0.19 0.00 92 1006.7
20260506044416 50 239 1.0 1.0 0.00 0.19 0.00 92 1006.7
20260506043916 50 222 0.0 1.0 0.00 0.19 0.00 92 1006.7
20260506043416 50 215 0.0 4.0 0.00 0.19 0.00 92 1006.6
20260506042919 50 261 3.0 3.0 0.00 0.21 0.00 92 1006.6
20260506042916 50 261 3.0 3.0 0.00 0.21 0.00 92 1006.6
20260506042416 50 146 0.0 0.0 0.00 0.21 0.00 93 1006.6
20260506041916 50 146 0.0 0.0 0.00 0.21 0.00 93 1006.6
20260506041420 50 146 0.0 0.0 0.00 0.21 0.00 93 1006.6
20260506041416 50 146 0.0 0.0 0.00 0.21 0.00 93 1006.6
20260506040916 50 146 0.0 3.0 0.00 0.21 0.00 94 1006.6
20260506040416 50 260 0.0 5.0 0.00 0.21 0.00 94 1006.6
20260506035919 50 277 0.0 0.0 0.00 0.21 0.00 95 1006.6
20260506035916 50 277 0.0 0.0 0.00 0.21 0.00 95 1006.6
20260506035416 50 277 0.0 2.0 0.00 0.21 0.00 95 1006.7
20260506034916 50 255 0.0 4.0 0.00 0.21 0.00 95 1006.7
20260506034416 50 222 2.0 4.0 0.00 0.21 0.00 95 1006.8
20260506033916 50 233 2.0 2.0 0.00 0.21 0.00 95 1007.0
20260506033416 50 180 0.0 5.0 0.00 0.21 0.00 95 1007.0
20260506032916 50 202 0.0 4.0 0.00 0.24 0.00 95 1007.1
20260506032416 50 223 1.0 7.0 0.00 0.24 0.00 95 1007.0
20260506031916 50 285 3.0 8.0 0.00 0.24 0.00 95 1007.0
20260506031416 49 254 5.0 8.0 0.00 0.24 0.00 95 1007.1
20260506030916 49 177 0.0 6.0 0.00 0.24 0.00 95 1007.2
20260506030417 49 216 4.0 6.0 0.00 0.24 0.00 95 1007.2
20260506025916 49 247 4.0 7.0 0.00 0.24 0.00 95 1007.2
20260506025416 49 254 4.0 7.0 0.00 0.24 0.00 95 1007.3
20260506024916 49 164 1.0 7.0 0.00 0.24 0.00 95 1007.3
20260506024416 50 230 5.0 5.0 0.00 0.24 0.00 95 1007.3
20260506023916 50 194 3.0 8.0 0.00 0.24 0.00 94 1007.3
20260506023416 50 196 6.0 9.0 0.00 0.24 0.00 94 1007.4
20260506022916 50 205 5.0 8.0 0.00 0.24 0.00 94 1007.4
20260506022416 50 267 7.0 10.0 0.00 0.24 0.00 94 1007.4
20260506021916 50 260 5.0 8.0 0.00 0.24 0.00 94 1007.4
20260506021416 50 225 4.0 8.0 0.00 0.24 0.00 94 1007.5
20260506020916 50 196 0.0 6.0 0.00 0.24 0.00 94 1007.5
20260506020416 50 243 3.0 3.0 0.00 0.24 0.00 93 1007.4
20260506015916 50 234 0.0 6.0 0.00 0.24 0.00 93 1007.4
20260506015416 50 230 6.0 7.0 0.00 0.24 0.00 93 1007.6
20260506014916 50 278 0.0 5.0 0.00 0.24 0.00 93 1007.6
20260506014416 50 241 3.0 6.0 0.00 0.24 0.00 93 1007.7
20260506013916 51 208 2.0 7.0 0.00 0.24 0.00 93 1007.8
20260506013416 51 230 4.0 13.0 0.00 0.24 0.00 92 1008.0
20260506012916 51 254 6.0 9.0 0.00 0.24 0.00 92 1008.1
20260506012416 51 258 9.0 9.0 0.00 0.24 0.00 92 1008.2
20260506011916 51 250 8.0 9.0 0.00 0.24 0.00 91 1008.3
20260506011416 51 265 5.0 8.0 0.00 0.24 0.00 90 1008.4
20260506010916 51 170 0.0 12.0 0.00 0.24 0.00 90 1008.4
20260506010416 51 222 2.0 11.0 0.00 0.24 0.00 89 1008.4
20260506005916 51 251 5.0 7.0 0.00 0.24 0.00 88 1008.5
20260506005417 51 215 4.0 6.0 0.00 0.24 0.00 87 1008.5
20260506004917 51 213 0.0 6.0 0.00 0.24 0.00 86 1008.5
20260506004417 51 274 3.0 7.0 0.00 0.24 0.00 86 1008.4
20260506003916 51 258 4.0 6.0 0.00 0.24 0.00 85 1008.5
20260506003417 51 253 4.0 7.0 0.00 0.24 0.00 85 1008.4
20260506002917 51 289 1.0 8.0 0.00 0.24 0.00 85 1008.4
20260506002417 51 227 2.0 9.0 0.00 0.24 0.00 85 1008.3
20260506001917 51 251 8.0 8.0 0.00 0.24 0.00 85 1008.3
20260506001417 51 258 6.0 8.0 0.00 0.24 0.00 85 1008.3
20260506000917 51 260 5.0 7.0 0.00 0.24 0.00 84 1008.4
20260506000417 51 251 3.0 7.0 0.00 0.24 0.00 84 1008.5
20260505235917 52 236 4.0 12.0 0.00 0.24 0.00 83 1008.5
20260505235417 52 285 2.0 8.0 0.00 0.24 0.00 81 1008.6
20260505234917 52 248 5.0 7.0 0.00 0.24 0.00 81 1008.7
20260505234417 52 267 5.0 9.0 0.00 0.24 0.00 81 1008.7
20260505233917 52 232 4.0 8.0 0.00 0.24 0.00 81 1008.7
20260505233417 52 275 3.0 9.0 0.00 0.24 0.00 82 1008.7
20260505232917 51 251 3.0 7.0 0.00 0.24 0.00 82 1008.8
20260505232417 52 248 6.0 7.0 0.00 0.24 0.00 82 1008.8
20260505231917 52 279 5.0 10.0 0.00 0.24 0.00 81 1008.8
20260505231417 52 210 3.0 9.0 0.00 0.24 0.00 81 1008.9
20260505230917 51 281 4.0 6.0 0.00 0.24 0.00 81 1008.8
20260505230417 51 233 2.0 9.0 0.00 0.24 0.00 82 1008.9
20260505225917 51 240 5.0 8.0 0.00 0.24 0.00 83 1008.8
20260505225417 51 187 3.0 6.0 0.00 0.24 0.00 82 1008.9
20260505224917 51 250 5.0 9.0 0.00 0.24 0.00 82 1008.8
20260505224417 52 174 3.0 6.0 0.00 0.24 0.00 81 1008.9
20260505223917 52 220 3.0 9.0 0.00 0.24 0.00 81 1008.9
20260505223417 52 226 7.0 9.0 0.00 0.24 0.00 81 1008.9
20260505222917 52 212 4.0 10.0 0.00 0.24 0.00 81 1008.9
20260505222417 52 254 9.0 9.0 0.00 0.24 0.00 80 1008.9
20260505221917 52 274 6.0 8.0 0.00 0.24 0.00 79 1008.9
20260505221421 52 271 6.0 10.0 0.00 0.24 0.00 78 1009.0
20260505221417 52 271 6.0 10.0 0.00 0.24 0.00 78 1009.0
20260505220917 52 260 8.0 10.0 0.00 0.24 0.00 78 1008.9
20260505220417 52 253 7.0 11.0 0.00 0.24 0.00 78 1008.8
20260505215920 52 243 7.0 13.0 0.00 0.24 0.00 79 1008.8
20260505215917 52 243 7.0 13.0 0.00 0.24 0.00 79 1008.8
20260505215417 52 236 5.0 6.0 0.00 0.24 0.24 81 1008.9
20260505214917 52 203 3.0 7.0 0.00 0.24 0.24 80 1008.8
20260505214422 52 275 1.0 4.0 0.00 0.24 0.24 80 1008.9
20260505214417 52 275 1.0 4.0 0.00 0.24 0.24 80 1008.9
20260505213917 52 220 4.0 9.0 0.00 0.24 0.24 80 1008.8
20260505213417 52 239 6.0 9.0 0.00 0.24 0.24 82 1008.8
20260505212920 51 223 0.0 3.0 0.00 0.24 0.24 82 1008.8
20260505212917 51 223 0.0 3.0 0.00 0.24 0.24 82 1008.8
20260505212417 52 296 1.0 1.0 0.00 0.24 0.24 81 1008.8